www.pogodaiklimat.ru

Погода и климат >> Архив погоды >> Россия >> Амурская область >> Малиновка


ПОГОДА в Малиновке

  • Прогноз погоды в Малиновке
  • Монитор погоды в Малиновке

АРХИВ ПОГОДЫ в Малиновке

Время (UTC), дата Ветер
(напр.,м/с)
 
Видим.   Явления Облачность Т
(С)
Тd
(С)
f
(%)
Тe
(С)
Тes
(С)
Комфортность P
(гПа)
Po
(гПа)
Тmin
(С)
Tmax
(С)
R
(мм)
R24
(мм)
S
(см)
12 14.07 В 1 50 км {гроза, ливн. осадки} 10/10 600 м
[Cb cap]
+19.4 +18.3 93 +23 +23 комфорт 1006.4 993.1 +28.3 20
15 14.07 С 1 50 км 10/3 600 м
[Cb cap Ac trans Ci fib]
+16.3 +15.3 94 +17 +17 1007.1 993.5
18 14.07 штиль 0 50 км 10/3 600 м
[Cb cap Ac trans Ci fib]
+15.7 +14.8 94 +15 +15 1007.7 994.2
21 14.07 штиль 0 50 км 10/6 1000 м
[Sc Ac trans]
+17.5 +16.6 94 +17 +18 1008.5 995.0
00 15.07 ЮВ 1 50 км 10/1 1000 м
[Cu med, cong Ac trans Ci fib]
+23.5 +19.2 77 +28 +34 душно 1008.5 995.3 +15.2
03 15.07 Ю 2 50 км в посл. час ливневой дождь 10/6 600 м
[Cb cap Ac As Ci fib]
+25.0 +19.6 72 +30 +34 душно 1008.3 995.1
06 15.07 Ю 3 50 км {гроза, ливн. осадки} 10/5 600 м
[Cb cap Ac cuf Ci fib]
+25.9 +17.9 61 +30 +33 душно 1007.3 994.2
09 15.07 ЮВ 1 50 км 10/4 600 м
[Cb cap Ac cuf Ci ing]
+24.0 +18.5 71 +28 +29 душно 1007.7 994.5
12 15.07 ЮВ 2 50 км 8/3 1000 м
[Sc diur, vesp Ac trans Ci fib]
+21.3 +18.2 82 +26 +26 душно 1008.4 995.1 +27.5 0.0
15 15.07 ЮВ 1 50 км 10/6 600 м
[Cb cap Ac trans Ci fib]
+20.3 +18.1 87 +25 +25 комфорт 1009.0 995.6
18 15.07 штиль 0 50 км гроза без осадков {ливн. осадки} 10/10 600 м
[Cb cap]
+19.5 +17.9 90 +22 +22 комфорт 1008.7 995.3
21 15.07 ЮВ 1 50 км {гроза} 10/6 600 м
[Cb cap Ac trans Ci fib]
+20.6 +17.4 82 +25 +25 комфорт 1008.5 995.2
00 16.07 ЮВ 3 50 км {гроза} 10/3 1000 м
[Cu med, cong Ac trans Cc]
+23.5 +18.6 74 +28 +31 душно 1008.4 995.2 +19.0 0.7
03 16.07 З 3 50 км гроза без осадков 10/10 600 м
[Cb cap]
+19.4 +16.5 83 +22 +22 комфорт 1008.7 995.3
06 16.07 ЮВ 2 14 км слаб. ливневой дождь {гроза} 10/10 600 м
[Cb cap]
+19.8 +17.7 88 +23 +23 комфорт 1007.9 994.6
09 16.07 В 2 50 км {ливн. осадки} 9/5 600 м
[Cb cap Ac trans Ci fib]
+22.6 +19.2 81 +29 +29 очень
душно
1006.0 992.8
12 16.07 ЮВ 2 50 км {ливн. осадки} 10/6 600 м
[Cb cap Ac cuf Ci fib]
+21.6 +18.5 83 +26 +26 душно 1006.1 992.9 +24.5 2
15 16.07 ЮВ 2 50 км зарница 10/6 600 м
[Cb cap Ci fib]
+20.8 +17.8 83 +25 +25 комфорт 1006.0 992.7
21 16.07 В 1 50 км 10/9 600 м
[Cb cap Ac trans Ci fib]
+19.5 +17.7 89 +23 +23 комфорт 1004.6 991.2
00 17.07 В 2 8000 м слаб. ливневой дождь 10/10 600 м
[Cb cap]
+19.3 +17.9 92 +22 +22 комфорт 1005.1 991.7 +19.1 7
03 17.07 ЮВ 2 9000 м слаб. ливневой дождь {гроза} 10/10 600 м
[Cb cap]
+19.4 +17.9 91 +22 +22 комфорт 1004.3 990.9
06 17.07 СВ 1 7000 м слаб. ливневой дождь 10/10 600 м
[Cb cap]
+20.1 +18.8 92 +25 +25 комфорт 1003.3 990.0
09 17.07 В 1 50 км {ливн. осадки} 6/3 600 м
[Cb cap Ac trans Ci fib]
+24.8 +17.6 64 +29 +30 душно 1002.3 989.2
12 17.07 СВ 1 50 км {ливн. осадки} 8/4 600 м
[Cb cap Ac trans Ci fib]
+19.0 +17.4 90 +22 +22 комфорт 1003.4 990.0 +24.8 35
15 17.07 штиль 0 50 км 10/0
[Ac trans Cs]
+15.8 +14.7 93 +16 +16 1003.7 990.2
18 17.07 С 1 50 км в посл. час туман 10/10 1000 м
[Sc]
+15.8 +14.9 94 +16 +16 1003.9 990.4
21 17.07 штиль 0 1000 м 10/8 1000 м
[St Ac trans]
+16.9 +15.9 94 +17 +17 1004.0 990.5
00 18.07 Ю 1 2000 м в посл. час туман 10/10 600 м
[St]
+20.1 +18.3 89 +24 +24 комфорт 1003.9 990.5 +14.9
03 18.07 ЮЗ 2 50 км гроза без осадков {ливн. осадки} 10/10 600 м
[Cb cap]
+22.3 +19.3 83 +28 +28 душно 1003.1 989.9
06 18.07 В 1
{10}
50 км {гроза, ливн. осадки} 9/3 600 м
[Cb cap Ac trans Ci ing]
+25.0 +19.8 73 +31 +36 очень
душно
1001.9 988.8
09 18.07 ЮЗ 2 50 км в посл. час гроза {ливн. осадки} 5/3 600 м
[Cb cap Ac cuf Ci fib]
+23.5 +18.5 74 +28 +29 душно 1002.2 989.1
12 18.07 штиль 0 50 км {гроза, ливн. осадки} 8/3 1000 м
[Sc diur, vesp Ac cast Ci fib]
+19.1 +17.5 90 +21 +21 комфорт 1003.3 989.9 +26.2 15
15 18.07 С 1 50 км 3/0
[Ci fib]
+16.0 +14.9 93 +17 +17 1004.1 990.6
18 18.07 штиль 0 200 м ?/? +15.4 +14.4 94 +15 +15 1004.1 990.6
21 18.07 Ю 1 200 м туман ?/? +15.3 +14.4 94 +16 +16 1004.8 991.3
00 19.07 Ю 1 500 м туман 6/6 600 м
[St]
+19.6 +18.5 93 +23 +28 комфорт 1005.5 992.1 +14.6
03 19.07 ЮЗ 1 50 км {туман} 10/1 1000 м
[Cu med, cong Ci fib]
+27.1 +19.0 61 +32 +47 очень
душно
1004.7 991.7
06 19.07 ЮЗ 2 50 км {туман} 10/6 600 м
[Cb cap Ci fib]
+29.6 +18.5 51 +34 +38 очень
душно
1003.9 991.0
09 19.07 Ю 1 50 км 10/0
[Ci fib]
+29.2 +18.8 54 +35 +37 очень
душно
1004.0 991.1
12 19.07 штиль 0 50 км 10/0
[Ac lent Ci fib]
+20.6 +19.1 91 +24 +24 комфорт 1005.7 992.4 +30.1
15 19.07 С 1 50 км 10/0
[Cs]
+17.1 +16.0 93 +18 +18 1006.5 993.0
21 19.07 В 1 50 км 10/0
[Ac trans Cs]
+17.9 +16.8 93 +19 +20 1007.1 993.7
00 20.07 Ю 2 50 км 10/0
[Ac trans Ci fib]
+24.7 +19.8 74 +30 +35 очень
душно
1006.6 993.5 +15.1
12 20.07 ЮВ 2 50 км 10/8 600 м
[Cb cap Ac trans Ci fib]
+24.6 +17.9 66 +29 +29 душно 1005.4 992.2 +30.1
15 20.07 ЮВ 1 50 км 10/8 600 м
[Cb cap Ac trans Ci fib]
+23.3 +18.6 75 +29 +29 душно 1005.7 992.1
00 21.07 ЮВ 3 50 км 10/4 1000 м
[Sc Ac trans Ci fib]
+26.1 +20.0 69 +32 +34 очень
душно
1004.7 991.6 +20.0

 

Местоположение метеостанции Малиновка (Амурская область, Россия): широта 49.78 долгота 129.90 высота над уровнем моря 116 м.

В архиве по умолчанию представлена погода в Малиновке за последнюю неделю. Архивные данные за месяц целиком и за предыдущие месяцы, начиная с января 2011 года, Вы можете получить, выбрав интересующий диапазон дат из раскрывающегося списка и нажав кнопку "Ввод!".


*Определитесь, кто Вы:
робот инопланетянин человек

Внимание! Время в таблицах - всемирное. Для получения местного времени необходимо прибавить поправку, которая равна 9 ч.

Смотрите также архив погоды в соседних городах и на ближайших метеорологических станциях:

Погода в Архаре (Амурская область, Россия) (41 км)
Погода в Завитае (Амурская область, Россия) (52 км)
Погода в Екатеринославке (Амурская область, Россия) (92 км)
Погода в Поярково (Амурская область, Россия) (95 км)
Погода в Сектагли (Хабаровский край, Россия) (107 км)
Погода в Облучье (Еврейская автономная область, Россия) (118 км)
Погода в Братолюбовке (Амурская область, Россия) (119 км)
Погода в Константиновке (Амурская область, Россия) (145 км)
Погода в Сутуре (Хабаровский край, Россия) (161 км)
Погода в Белогорске (Амурская область, Россия) (166 км)

Пояснения к столбцам:

Ветер - указаны скорость ветра в м/с - средняя за 10 мин, порывы в срок и между сроками (в фигурных скобках) и направление, откуда дует ветер: С - северный, СВ - северо-восточный, В - восточный, ЮВ - юго-восточный, Ю - южный, ЮЗ - юго-западный, З - западный, СЗ - северо-западный.
Видимость - горизонтальная дальность видимости в метрах или километрах. При видимости от 1 до 10 км при отсутствии осадков обычно наблюдается дымка, при ухудшении видимости до 1 км и менее - туман. В сухую погоду видимость может ухудшаться дымом, пылью или мглою.
Явления - указаны атмосферные явления, наблюдавшиеся в срок или в последний час перед сроком; фигурными скобками обозначены явления, наблюдавшиеся между сроками (за 1-3 часа до срока); квадратными скобками обозначены град или гололедные отложения с указанием их диаметра в мм.
Облачность - указаны через наклонную черту общая и нижняя облачность в баллах и высота нижней границы облаков в метрах; квадратными скобками обозначены формы облаков: Ci - перистые, Cs - перисто-слоистые, Cc - перисто-кучевые, Ac - высококучевые, As - высокослоистые, Sc - слоисто-кучевые, Ns - слоисто-дождевые, Cu - кучевые, Cb - кучево-дождевые. Подробнее классификацию облаков см. в Атласе облаков (PDF).
T - Температура воздуха - температура, измеренная на высоте 2 м над землей.
Td - Температура точки росы - температура, при понижении до которой содержащийся в воздухе водяной пар достигнет насыщения.
f - Относительная влажность воздуха - влажноcть воздуха, измеренная на высоте 2 м над землей.
Te - Эффективная температура - температура, которую ощущает одетый по сезону человек в тени. Характеристика душности погоды. При расчете учитывается влияние влажности воздуха и скорости ветра на теплоощущения человека.
Tes - Эффективная температура на солнце - температура, которую ощущает человек, с поправкой на солнечный нагрев. Характеристика знойности погоды. Зависит от высоты солнца над горизонтом, облачности и скорости ветра. Ночью, в пасмурную погоду, а также при ветре 12 м/с и более поправка равна нулю.
P - Атмосферное давление - приведенное к уровню моря атмосферное давление.
Po - Атмосферное давление - измеренное на уровне метеостанции атмосферное давление.
Tmin - Минимальная температура - минимум температуры воздуха на высоте 2 м над землей.
Tmax - Максимальная температура - максимум температуры воздуха на высоте 2 м над землей.
R - Количество осадков - Количество выпавших осадков за период времени, мм. При наведении курсора мыши на число - период времени, за который выпало указанное количество осадков.
R24 - Количество осадков - Количество выпавших осадков за 24 часа, мм.
S - Снежный покров - Высота снежного покрова, см. При наведении курсора мыши на число - состояние снежного покрова и степень покрытия местности в баллах.